Regional Weather Roundup
Issued by NWS

Home | Current Version | Previous Version | Graphics & Text | Print | Product List | Glossary On
Versions: 1 2 3 4 5 6 7 8 9 10 11 12 13 14 15 16 17 18 19 20 21 22 23 24 25 26 27 28 29 30 31 32 33 34 35 36 37 38 39 40 41 42 43 44 45 46 47 48 49 50
000
ASUS43 KBIS 260710
RWRND

NORTH DAKOTA REGIONAL WEATHER ROUNDUP
NATIONAL WEATHER SERVICE BISMARCK ND
200 AM CDT SUN APR 26 2015

NOTE: "FAIR" INDICATES FEW OR NO CLOUDS BELOW 12,000 FEET WITH NO
SIGNIFICANT WEATHER AND/OR OBSTRUCTIONS TO VISIBILITY.


NDZ001>003-009>011-017-260800-
NORTHWEST NORTH DAKOTA

CITY           SKY/WX    TMP DP  RH WIND       PRES   REMARKS
WILLISTON      CLOUDY    43  39  86 W12       29.90R
MINOT          CLOUDY    47  41  80 SE10      29.91R
MINOT AFB      CLOUDY    47  47  99 S12       29.90R
$$

NDZ018>021-031>035-040>046-260800-
SOUTHWEST NORTH DAKOTA

CITY           SKY/WX    TMP DP  RH WIND       PRES   REMARKS
BISMARCK       CLOUDY    48  43  82 E7        29.94R
DICKINSON      LGT RAIN  44  42  93 W6        29.90R
GARRISON         N/A     46  43  89 SE8       29.92R
HETTINGER ARPT CLOUDY    44  42  93 NW7       29.92R
$$

NDZ004>008-012>016-024-026-027-054-260800-
NORTHEAST NORTH DAKOTA

CITY           SKY/WX    TMP DP  RH WIND       PRES   REMARKS
GRAND FORKS    CLEAR     37  29  72 SW7       30.01R
GRND FRKS AFB  CLEAR     38  29  72 S7        30.01R
DEVILS LAKE    CLOUDY    45  39  81 SE5       29.98R
$$

NDZ022-023-025-028>030-036>039-047>053-260800-
SOUTHEAST NORTH DAKOTA

CITY           SKY/WX    TMP DP  RH WIND       PRES   REMARKS
FARGO          CLEAR     46  29  51 SE7       30.01R
JAMESTOWN      CLOUDY    47  40  76 CALM      29.97R
$$



USA.gov is the U.S. government's official web portal to all federal, state and local government web resources and services.